Location: Düngen
(52.0952°N, 10.0219°E)
Time: 15:46:07
(UTC+00:00)

CZ-4B R/B - Pass Details

Date: 11 March 2026
Orbit: 808 x 879 km, 98.9° (Epoch: 14 April)

Event Time Altitude Azimuth Distance (km) Brightness Sun altitude
Exits shadow 18:23:49 13° 118° (ESE) 2,212 4.8 -11.0°
Maximum altitude 18:27:54 32° 60° (ENE) 1,377 3.9 -11.6°
Drops below altitude 10° 18:32:36 10° 359° (N) 2,438 5.7 -12.3°
Sets 18:35:11 0° 350° (N) 3,386 6.6 -12.7°
